EW6745 Weather Reports


time (UTC)temp
F
wind
direction
speed
knots
gust
knots
rain 1hr
in
rain 24hr
in
rain mn
in
humidity
%
barometer
mb
20260507201529 61 301 9.6 14.8 0.00 0.00 0.00 44 1014.2
20260507201036 61 300 9.6 14.8 0.00 0.00 0.00 45 1014.4
20260507200517 61 284 9.6 16.5 0.00 0.00 0.00 46 1014.4
20260507200018 61 300 11.3 16.5 0.00 0.00 0.00 46 1014.6
20260507195544 60 305 10.4 13.0 0.00 0.00 0.00 49 1014.6
20260507195030 60 317 8.7 14.8 0.00 0.00 0.00 48 1014.7
20260507194531 59 312 10.4 14.8 0.00 0.00 0.00 46 1014.8
20260507194013 59 311 11.3 14.8 0.00 0.00 0.00 48 1014.8
20260507193521 58 274 10.4 17.4 0.00 0.00 0.00 47 1014.8
20260507193022 59 293 11.3 17.4 0.00 0.00 0.00 45 1015.0
20260507192523 59 288 10.4 16.5 0.00 0.00 0.00 48 1015.0
20260507192053 59 288 12.2 16.5 0.00 0.00 0.00 48 1015.0
20260507191513 59 284 11.3 16.5 0.00 0.00 0.00 47 1015.1
20260507191021 59 291 11.3 16.5 0.00 0.00 0.00 52 1015.1
20260507190522 58 274 11.3 16.5 0.00 0.00 0.00 52 1015.2
20260507190031 58 300 10.4 18.2 0.00 0.00 0.00 49 1015.2
20260507185532 57 286 10.4 18.2 0.00 0.00 0.00 53 1015.3
20260507185059 57 295 10.4 16.5 0.00 0.00 0.00 52 1015.3
20260507184518 56 283 11.3 18.2 0.00 0.00 0.00 53 1015.4
20260507184020 55 305 12.2 18.2 0.00 0.00 0.00 52 1015.4
20260507183548 56 290 12.2 18.2 0.00 0.00 0.00 54 1015.4
20260507183028 55 290 9.6 15.6 0.00 0.00 0.00 58 1015.5
20260507182534 55 286 12.2 15.6 0.00 0.00 0.00 55 1015.5
20260507182015 54 273 9.6 13.9 0.00 0.00 0.00 58 1015.6
20260507181515 54 268 7.0 12.2 0.00 0.00 0.00 58 1015.8
20260507181043 53 282 7.8 13.0 0.00 0.00 0.00 57 1015.8
20260507180522 53 274 8.7 13.0 0.00 0.00 0.00 58 1015.9
20260507180029 52 295 8.7 13.0 0.00 0.00 0.00 57 1015.9
20260507175525 52 298 8.7 12.2 0.00 0.01 0.00 57 1015.9
20260507175033 51 288 8.7 12.2 0.00 0.01 0.00 58 1016.0
20260507174515 51 291 8.7 12.2 0.00 0.01 0.00 58 1016.0
20260507174022 51 284 8.7 12.2 0.00 0.01 0.00 59 1016.0
20260507173522 50 288 8.7 11.3 0.00 0.01 0.00 61 1016.0
20260507173051 49 280 8.7 11.3 0.00 0.01 0.00 61 1015.9
20260507172537 49 300 8.7 10.4 0.00 0.01 0.00 62 1015.9
20260507172018 48 298 7.8 11.3 0.00 0.01 0.00 64 1015.8
20260507171518 47 295 8.7 12.2 0.00 0.01 0.00 64 1015.8
20260507171021 47 284 8.7 12.2 0.00 0.01 0.00 65 1015.8
20260507170529 46 288 7.8 13.0 0.00 0.01 0.00 65 1015.9
20260507170031 46 283 9.6 13.9 0.00 0.01 0.00 63 1015.9
20260507165540 47 286 10.4 14.8 0.00 0.05 0.00 62 1015.9
20260507165020 47 303 11.3 16.5 0.00 0.05 0.00 61 1016.1
20260507164529 47 303 11.3 16.5 0.00 0.05 0.00 61 1016.1
20260507164050 47 286 11.3 14.8 0.00 0.05 0.00 61 1016.0
20260507163538 48 286 8.7 13.0 0.00 0.05 0.00 60 1016.1
20260507163041 47 290 8.7 12.2 0.00 0.05 0.00 59 1016.0
20260507162528 47 310 8.7 11.3 0.00 0.05 0.00 62 1015.9
20260507162029 46 292 7.8 13.0 0.00 0.05 0.00 63 1015.9
20260507161534 46 301 8.7 13.0 0.00 0.05 0.00 62 1015.8
20260507161101 45 303 9.6 13.0 0.00 0.05 0.00 62 1015.8
20260507160521 45 295 9.6 13.0 0.00 0.05 0.00 63 1015.8
20260507160021 44 282 7.8 10.4 0.00 0.05 0.00 63 1015.9
20260507155529 45 290 7.8 10.4 0.00 0.07 0.00 63 1015.9
20260507155049 45 305 7.0 10.4 0.00 0.07 0.00 63 1016.1
20260507154537 45 293 7.0 11.3 0.00 0.07 0.00 62 1016.1
20260507154018 45 316 7.8 11.3 0.00 0.07 0.00 62 1016.3
20260507153520 45 324 8.7 13.0 0.00 0.07 0.00 62 1016.3
20260507153048 45 303 9.6 13.9 0.00 0.07 0.00 61 1016.3
20260507152528 46 311 10.4 15.6 0.00 0.07 0.00 60 1016.3
20260507152036 46 309 10.4 17.4 0.00 0.07 0.00 60 1016.4
20260507151516 46 311 12.2 20.0 0.00 0.07 0.00 60 1016.3
20260507151017 46 300 13.0 17.4 0.00 0.07 0.00 59 1016.2
20260507150524 45 320 13.0 16.5 0.00 0.07 0.00 62 1016.3
20260507150025 44 313 10.4 15.6 0.00 0.07 0.00 64 1016.3
20260507145533 44 318 11.3 19.1 0.00 0.08 0.00 62 1016.3
20260507145019 44 322 12.2 19.1 0.00 0.08 0.00 61 1016.3
20260507144521 44 321 12.2 16.5 0.00 0.08 0.00 63 1016.3
20260507144024 43 311 12.2 15.6 0.00 0.08 0.00 65 1016.3
20260507143525 43 320 10.4 15.6 0.00 0.08 0.00 63 1016.3
20260507143014 44 313 10.4 15.6 0.00 0.08 0.00 62 1016.2
20260507142516 44 304 10.4 16.5 0.00 0.08 0.00 62 1016.2
20260507142017 44 306 11.3 16.5 0.00 0.08 0.00 62 1016.1
20260507141523 44 304 11.3 17.4 0.00 0.08 0.00 62 1016.1
20260507141026 44 302 13.9 19.1 0.00 0.08 0.00 61 1016.0
20260507140534 44 298 13.9 20.0 0.00 0.08 0.00 60 1015.9
20260507140019 44 311 13.9 23.5 0.00 0.08 0.00 60 1015.7
20260507135520 44 301 17.4 26.9 0.00 0.08 0.00 60 1015.6
20260507135046 44 288 19.1 26.9 0.00 0.08 0.00 60 1015.2
20260507134533 43 292 18.2 25.2 0.00 0.08 0.00 61 1015.1
20260507134034 44 302 15.6 23.5 0.00 0.08 0.00 60 1015.2
20260507133522 43 298 16.5 21.7 0.00 0.08 0.00 60 1015.3
20260507133044 43 291 14.8 20.9 0.00 0.08 0.00 60 1015.3
20260507132529 43 290 15.6 20.9 0.00 0.08 0.00 61 1015.2
20260507132031 43 291 17.4 20.9 0.00 0.08 0.00 61 1015.1
20260507131539 43 297 16.5 21.7 0.00 0.08 0.00 62 1015.1
20260507131020 43 283 16.5 22.6 0.00 0.08 0.00 62 1015.1
20260507130523 43 297 16.5 22.6 0.00 0.08 0.00 62 1014.9
20260507130031 43 286 17.4 22.6 0.00 0.08 0.00 61 1014.9
20260507125512 43 292 17.4 21.7 0.00 0.08 0.00 61 1014.8
20260507125032 42 291 15.6 22.6 0.00 0.08 0.00 62 1014.8
20260507124513 42 307 16.5 22.6 0.00 0.08 0.00 62 1014.8
20260507124022 42 299 15.6 21.7 0.00 0.08 0.00 62 1014.9
20260507123529 42 313 13.9 19.1 0.00 0.08 0.00 62 1014.9
20260507123030 42 291 13.9 20.0 0.00 0.08 0.00 62 1015.0
20260507122538 42 305 13.9 20.0 0.00 0.08 0.00 63 1015.0
20260507122019 41 314 13.0 20.9 0.00 0.08 0.00 64 1014.8
20260507121528 41 291 14.8 20.9 0.00 0.08 0.00 64 1014.8
20260507121030 41 301 16.5 21.7 0.00 0.08 0.00 64 1014.8
20260507120539 41 305 15.6 21.7 0.00 0.08 0.00 64 1014.6
20260507120021 41 293 16.5 21.7 0.00 0.08 0.00 63 1014.6
20260507115524 41 305 16.5 20.0 0.00 0.08 0.00 64 1014.5
20260507115033 41 298 14.8 20.9 0.00 0.08 0.00 63 1014.5
20260507114531 41 290 16.5 22.6 0.00 0.08 0.00 63 1014.6
20260507114014 41 299 17.4 23.5 0.00 0.08 0.00 63 1014.5
20260507113522 41 305 17.4 23.5 0.00 0.08 0.00 63 1014.5
20260507113056 41 307 16.5 26.1 0.00 0.08 0.00 62 1014.4
20260507112516 41 307 17.4 26.1 0.00 0.08 0.00 62 1014.4
20260507112017 41 288 18.2 22.6 0.00 0.08 0.00 62 1014.2
20260507111546 41 297 16.5 22.6 0.00 0.08 0.00 62 1014.2
20260507111025 41 314 15.6 20.9 0.00 0.08 0.00 62 1014.4
20260507110533 41 309 13.9 22.6 0.00 0.08 0.00 62 1014.7
20260507110015 41 300 15.6 22.6 0.00 0.08 0.00 62 1014.5
20260507105515 41 307 16.5 23.5 0.00 0.08 0.00 62 1014.6
20260507105043 41 295 17.4 23.5 0.00 0.08 0.00 62 1014.5
20260507104524 41 305 17.4 22.6 0.00 0.08 0.00 62 1014.4
20260507104033 41 295 17.4 24.3 0.00 0.08 0.00 62 1014.4
20260507103518 41 298 19.1 24.3 0.00 0.08 0.00 62 1014.4
20260507103019 41 303 17.4 23.5 0.00 0.08 0.00 62 1014.5
20260507102547 41 303 17.4 21.7 0.00 0.08 0.00 63 1014.4
20260507102027 41 310 16.5 20.9 0.00 0.08 0.00 62 1014.4
20260507101539 41 295 15.6 20.9 0.00 0.08 0.00 62 1014.4
20260507101021 41 292 16.5 20.9 0.00 0.08 0.00 61 1014.4
20260507100522 41 288 16.5 23.5 0.00 0.08 0.00 60 1014.4
20260507100052 41 298 15.6 24.3 0.00 0.08 0.00 60 1014.4
20260507095538 42 300 16.5 24.3 0.00 0.08 0.00 59 1014.4
20260507095019 42 316 17.4 22.6 0.00 0.08 0.00 59 1014.4
20260507094519 41 303 16.5 22.6 0.00 0.08 0.00 60 1014.4
20260507094023 41 302 15.6 20.9 0.00 0.08 0.00 61 1014.5
20260507093534 41 303 14.8 22.6 0.00 0.08 0.00 61 1014.5
20260507093016 41 293 14.8 22.6 0.00 0.08 0.00 61 1014.7
20260507092519 41 299 16.5 21.7 0.00 0.08 0.00 61 1014.6
20260507092026 41 295 16.5 20.9 0.00 0.08 0.00 61 1014.7
20260507091528 41 309 15.6 20.9 0.00 0.08 0.00 61 1014.7
20260507091016 41 311 13.0 22.6 0.00 0.08 0.00 61 1014.8
20260507090523 41 293 15.6 22.6 0.00 0.08 0.00 61 1014.8
20260507090024 41 309 14.8 21.7 0.00 0.08 0.00 61 1014.8
20260507085533 41 312 15.6 21.7 0.00 0.08 0.00 60 1014.8
20260507085014 41 307 15.6 21.7 0.00 0.08 0.00 60 1014.8
20260507084517 41 312 15.6 26.1 0.00 0.08 0.00 60 1014.7
20260507084016 41 304 16.5 26.1 0.00 0.08 0.00 60 1014.6
20260507083526 41 300 15.6 21.7 0.00 0.08 0.00 60 1014.6
20260507083056 41 299 17.4 22.6 0.00 0.08 0.00 60 1014.6
20260507082536 41 309 16.5 23.5 0.00 0.08 0.00 60 1014.6
20260507082023 41 304 17.4 25.2 0.00 0.08 0.00 60 1014.6
20260507081523 41 298 17.4 25.2 0.00 0.08 0.00 59 1014.7
20260507081026 41 297 18.2 26.1 0.00 0.08 0.00 59 1014.6
20260507080535 41 297 16.5 26.1 0.00 0.08 0.00 59 1014.7
20260507080015 41 295 20.0 26.1 0.00 0.08 0.00 60 1014.7
20260507075517 41 307 19.1 26.1 0.00 0.08 0.00 60 1014.7
20260507075025 40 300 19.1 25.2 0.00 0.08 0.00 60 1014.6
20260507074526 40 282 19.1 27.8 0.00 0.08 0.00 61 1014.7
20260507074036 40 295 18.2 27.8 0.00 0.08 0.00 61 1014.7
20260507073517 40 290 17.4 23.5 0.00 0.08 0.00 60 1014.8
20260507073019 40 290 15.6 20.9 0.00 0.08 0.00 60 1014.8
20260507072520 40 295 14.8 22.6 0.00 0.08 0.00 60 1014.7
20260507072027 40 284 15.6 22.6 0.00 0.08 0.00 59 1014.9
20260507071528 40 286 17.4 22.6 0.00 0.08 0.00 60 1014.8
20260507071014 40 305 16.5 22.6 0.00 0.08 0.00 60 1015.0
20260507070523 40 299 15.6 23.5 0.00 0.08 0.00 61 1014.9
20260507070025 40 293 16.5 23.5 0.00 0.08 0.00 61 1015.0
20260507065532 39 309 15.6 20.9 0.00 0.08 0.00 61 1015.1
20260507065014 39 316 14.8 20.9 0.00 0.08 0.00 62 1015.2
20260507064516 39 291 15.6 20.9 0.00 0.08 0.00 63 1015.2
20260507064023 39 290 14.8 22.6 0.00 0.08 0.00 64 1015.4
20260507063525 39 290 16.5 22.6 0.00 0.08 0.00 65 1015.3
20260507063031 38 288 15.6 20.9 0.00 0.08 0.00 68 1015.3
20260507062512 36 290 10.4 13.9 0.00 0.08 0.00 71 1015.4
20260507062013 35 284 8.7 13.9 0.00 0.08 0.00 70 1015.6
20260507061521 36 297 8.7 13.9 0.00 0.08 0.00 68 1015.8
20260507061045 37 316 8.7 13.9 0.00 0.08 0.00 67 1015.8
20260507060524 37 283 10.4 15.6 0.00 0.08 0.00 68 1015.9
20260507060032 37 274 9.6 15.6 0.00 0.08 0.00 69 1015.8
20260507055525 37 273 10.4 15.6 0.00 0.08 0.00 68 1015.9
20260507055027 37 272 9.6 18.2 0.00 0.08 0.00 70 1016.0
20260507054518 37 268 12.2 18.2 0.00 0.08 0.00 72 1016.0
20260507054101 36 284 13.0 16.5 0.00 0.08 0.00 76 1016.0
20260507053539 35 284 9.6 13.9 0.00 0.08 0.00 80 1016.1
20260507053028 34 263 7.8 13.0 0.00 0.08 0.00 84 1015.9
20260507052527 32 276 5.2 7.8 0.00 0.08 0.00 85 1016.2
20260507052027 32 245 4.3 8.7 0.00 0.08 0.00 86 1016.3
20260507051536 32 236 6.1 10.4 0.00 0.08 0.00 86 1016.3
20260507051016 32 257 7.0 11.3 0.00 0.08 0.00 86 1016.4
20260507050518 32 258 8.7 12.2 0.00 0.08 0.00 87 1016.3
20260507050024 32 226 8.7 12.2 0.00 0.08 0.00 86 1016.4
20260507045545 32 242 7.8 12.2 0.00 0.08 0.00 86 1016.5
20260507045012 32 244 8.7 13.9 0.00 0.08 0.00 86 1016.5
20260507044532 32 238 10.4 14.8 0.00 0.08 0.00 86 1016.4
20260507044015 32 253 9.6 14.8 0.00 0.08 0.00 85 1016.3
20260507043523 32 252 10.4 13.9 0.00 0.08 0.00 85 1016.4
20260507043025 32 250 10.4 13.9 0.00 0.08 0.00 85 1016.4
20260507042533 32 257 9.6 13.9 0.00 0.08 0.00 84 1016.3
20260507042034 32 257 10.4 15.6 0.00 0.08 0.00 84 1016.4
20260507041515 32 238 9.6 15.6 0.00 0.08 0.00 84 1016.4
20260507041023 32 263 11.3 15.6 0.00 0.08 0.00 84 1016.3
20260507040522 32 266 10.4 15.6 0.00 0.08 0.00 83 1016.5
20260507040029 32 238 9.6 14.8 0.00 0.08 0.00 83 1016.5
20260507035530 33 247 9.6 14.8 0.00 0.08 0.00 82 1016.4
20260507035018 33 243 10.4 14.8 0.00 0.08 0.00 82 1016.6
20260507034520 33 250 8.7 13.9 0.00 0.08 0.00 81 1016.6
20260507034020 33 245 9.6 13.9 0.00 0.08 0.00 81 1016.5
20260507033512 33 246 9.6 13.9 0.00 0.08 0.00 82 1016.5
20260507033057 33 250 7.8 12.2 0.00 0.08 0.00 82 1016.7
20260507032518 33 238 8.7 13.0 0.00 0.08 0.00 82 1016.6
20260507032018 33 243 9.6 13.0 0.00 0.08 0.00 82 1016.6
20260507031519 33 245 8.7 12.2 0.00 0.08 0.00 81 1016.6
20260507031027 33 248 8.7 12.2 0.00 0.08 0.00 81 1016.6
20260507030558 33 243 8.7 11.3 0.00 0.08 0.00 81 1016.6
20260507030040 33 247 8.7 13.0 0.00 0.08 0.00 81 1016.5
20260507025527 34 255 8.7 13.0 0.00 0.08 0.00 81 1016.6
20260507025027 33 228 8.7 11.3 0.00 0.08 0.00 81 1016.5
20260507024528 34 254 8.7 12.2 0.00 0.08 0.00 82 1016.5
20260507024037 33 239 8.7 12.2 0.00 0.08 0.00 81 1016.4
20260507023518 33 241 7.8 12.2 0.00 0.08 0.00 81 1016.4
20260507023018 33 242 7.8 12.2 0.00 0.08 0.00 81 1016.3
20260507022526 33 244 7.8 12.2 0.00 0.08 0.00 81 1016.4
20260507022027 33 232 7.8 12.2 0.00 0.08 0.00 81 1016.5
20260507021535 33 250 7.8 11.3 0.00 0.08 0.00 81 1016.5
20260507021018 33 246 8.7 11.3 0.00 0.08 0.00 80 1016.6
20260507020535 34 238 7.0 11.3 0.00 0.08 0.00 79 1016.5
20260507020041 34 253 7.8 12.2 0.00 0.08 0.00 79 1016.6
20260507015528 34 250 8.7 12.2 0.00 0.08 0.00 79 1016.7
20260507015028 34 246 7.8 10.4 0.00 0.08 0.00 79 1016.6
20260507014536 34 251 6.1 11.3 0.00 0.08 0.00 79 1016.7
20260507014017 34 243 7.8 11.3 0.00 0.08 0.00 79 1016.7
20260507013518 34 247 7.0 11.3 0.00 0.08 0.00 79 1016.9
20260507013026 34 244 8.7 12.2 0.00 0.08 0.00 79 1016.9
20260507012535 35 241 8.7 12.2 0.00 0.08 0.00 79 1017.0
20260507012037 34 240 9.6 12.2 0.00 0.08 0.00 79 1016.9
20260507011517 34 236 6.1 11.3 0.00 0.08 0.00 79 1017.0
20260507010526 35 234 7.8 11.3 0.00 0.08 0.00 79 1016.9
20260507010035 35 216 7.8 11.3 0.00 0.08 0.00 78 1016.9
20260507005520 35 232 7.0 11.3 0.00 0.08 0.00 78 1016.9
20260507005049 35 236 7.0 11.3 0.00 0.08 0.00 78 1016.9
20260507004548 35 234 7.8 12.2 0.00 0.08 0.00 77 1016.9
20260507004035 35 243 7.0 13.0 0.00 0.08 0.00 77 1016.9
20260507003517 35 249 7.8 12.2 0.00 0.08 0.00 77 1016.9
20260507003019 35 248 7.8 11.3 0.00 0.08 0.00 78 1017.0
20260507002525 35 257 7.8 11.3 0.00 0.08 0.00 78 1017.0
20260507002027 35 247 7.0 12.2 0.00 0.08 0.00 78 1017.1
20260507001536 35 240 7.8 12.2 0.00 0.08 0.00 78 1017.0
20260507001016 35 247 7.0 9.6 0.00 0.08 0.00 77 1017.1
20260507000523 35 247 7.0 9.6 0.00 0.08 0.00 78 1017.2
20260507000025 35 254 7.0 10.4 0.00 0.08 0.00 77 1017.2
20260506235535 35 256 7.0 10.4 0.00 0.08 0.00 76 1017.3
20260506235014 35 234 7.8 10.4 0.00 0.08 0.00 76 1017.3
20260506234534 35 249 7.0 10.4 0.00 0.08 0.00 76 1017.3
20260506234019 35 245 7.8 10.4 0.00 0.08 0.00 75 1017.3
20260506233517 35 254 7.0 11.3 0.00 0.08 0.00 75 1017.4
20260506233025 35 253 7.8 11.3 0.00 0.08 0.00 75 1017.4
20260506232546 35 254 7.0 10.4 0.00 0.08 0.00 74 1017.6
20260506232033 35 265 7.8 10.4 0.00 0.08 0.00 74 1017.5
20260506231516 35 239 7.8 10.4 0.00 0.08 0.00 74 1017.6
20260506231018 35 279 7.8 10.4 0.00 0.08 0.00 74 1017.5
20260506230527 35 251 7.0 9.6 0.00 0.08 0.00 74 1017.5
20260506230029 35 272 6.1 11.3 0.00 0.08 0.00 74 1017.4
20260506225537 35 257 7.8 11.3 0.00 0.12 0.00 73 1017.5
20260506225018 35 243 7.0 10.4 0.00 0.12 0.00 74 1017.5
20260506224519 35 243 7.0 10.4 0.00 0.12 0.00 74 1017.5
20260506224020 34 251 7.0 12.2 0.00 0.12 0.00 74 1017.5
20260506223549 34 247 7.8 12.2 0.00 0.12 0.00 73 1017.5
20260506223035 34 251 7.8 11.3 0.00 0.12 0.00 73 1017.5
20260506222516 34 239 7.0 11.3 0.00 0.12 0.00 73 1017.5
20260506222034 34 232 7.0 10.4 0.00 0.12 0.00 74 1017.6
20260506221541 34 236 7.0 9.6 0.00 0.12 0.00 75 1017.6
20260506221029 34 272 6.1 10.4 0.00 0.12 0.00 74 1017.6
20260506220555 34 232 7.0 10.4 0.00 0.12 0.00 75 1017.7
20260506220015 34 252 7.0 10.4 0.00 0.12 0.00 75 1017.9
20260506215516 34 240 7.0 9.6 0.00 0.17 0.00 75 1017.7
20260506215024 34 212 7.8 9.6 0.00 0.17 0.00 74 1017.9
20260506214525 34 232 7.8 10.4 0.00 0.17 0.00 75 1017.9
20260506214034 34 239 7.8 10.4 0.00 0.17 0.00 74 1018.0
20260506213514 34 240 7.8 11.3 0.00 0.17 0.00 74 1018.1
20260506213016 34 243 7.0 10.4 0.00 0.17 0.00 74 1018.2
20260506212525 33 236 7.8 12.2 0.00 0.17 0.00 74 1018.2
20260506212026 33 247 7.8 12.2 0.00 0.17 0.00 74 1018.3
20260506211534 33 243 7.8 11.3 0.00 0.17 0.00 74 1018.5
20260506211013 33 239 8.7 11.3 0.00 0.17 0.00 74 1018.4
20260506210515 33 230 8.7 11.3 0.00 0.17 0.00 72 1018.4
20260506210023 33 226 8.7 11.3 0.00 0.17 0.00 72 1018.5
20260506205552 33 234 8.7 11.3 0.00 0.24 0.00 73 1018.5
20260506205050 33 249 7.8 11.3 0.00 0.24 0.00 73 1018.6
20260506204518 33 241 7.0 9.6 0.00 0.24 0.00 73 1018.6
20260506204039 33 234 7.8 10.4 0.00 0.24 0.00 72 1018.7
20260506203524 33 229 6.1 10.4 0.00 0.24 0.00 73 1018.7
20260506203024 33 273 7.0 9.6 0.00 0.24 0.00 72 1018.8
20260506202533 33 229 6.1 9.6 0.00 0.24 0.00 71 1018.8
20260506202015 33 226 7.8 9.6 0.00 0.24 0.00 71 1018.7